Wind_Speed
34 35 36 38 40 42 45 47 50 53 55 57 60 62 64 66 68 69 70 71 72 73 74 76 77 79 81 82 84 85 87 89 91 93 95 98 101 103 105 106 107 108 108 108 109 109 108 108 107 107 107 106 106 106 105 105 105 104 103 103 103 103 103 105 106 107 110 113 106 97 93 95 97 99 100 99 100 100 97 96 96 97 98 94 91 91 92 93
30 31 32 33 35 37 39 41 43 46 48 51 53 56 58 60 62 64 65 67 69 70 71 73 75 76 78 79 80 82 83 84 86 88 90 92 94 97 99 101 103 104 105 106 107 107 107 107 107 107 106 106 107 106 106 106 105 104 104 103 102 103 105 107 108 107 107 105 100 97 94 96 99 98 98 99 99 98 96 96 97 96 95 92 91 91 90 91
27 28 28 29 30 32 33 35 37 40 42 44 46 49 51 53 56 58 60 62 63 65 67 69 71 73 74 75 76 78 79 80 82 83 85 87 89 91 93 95 97 99 100 102 103 104 104 105 106 106 106 106 106 106 105 106 105 105 104 102 103 105 107 107 106 103 101 99 99 97 95 98 99 95 95 97 98 96 96 97 96 94 92 90 88 88 90 89
25 25 25 26 27 28 29 30 32 34 36 38 40 42 45 47 49 51 53 55 57 59 62 64 66 67 69 70 72 73 75 76 78 80 81 83 84 86 87 89 91 92 94 96 97 99 100 101 102 103 103 103 104 104 103 104 104 103 102 101 103 105 105 103 100 98 97 98 98 95 95 99 98 94 94 95 96 95 95 95 92 90 87 85 86 89 90 88
23 23 23 24 24 25 26 27 28 30 31 33 35 37 39 41 43 45 47 49 51 53 55 57 59 61 62 64 66 67 69 70 72 74 76 77 79 81 82 84 85 87 88 90 91 93 94 95 96 97 99 99 100 100 100 101 101 99 99 101 102 101 101 99 95 94 95 97 97 94 95 98 94 91 91 92 93 92 92 91 87 85 85 85 87 88 87 86
21 21 22 23 23 24 25 26 27 28 29 30 32 33 35 36 38 40 42 43 45 47 49 51 52 54 55 57 58 60 61 63 65 67 69 71 72 74 76 78 80 81 83 84 85 87 88 89 90 92 93 93 94 95 95 96 95 95 96 97 96 95 96 93 89 91 93 94 93 91 91 92 87 87 90 90 91 88 87 86 83 84 84 84 85 85 83 83
21 22 22 23 23 24 25 26 26 27 28 29 30 31 32 33 34 36 37 39 40 42 43 44 45 46 48 49 50 52 53 55 57 59 60 62 64 66 68 70 72 74 76 77 79 81 82 83 85 86 87 88 89 89 90 90 90 90 91 92 90 90 90 87 86 88 89 89 89 86 86 87 85 87 88 86 87 84 82 83 82 83 82 79 81 82 80 79
24 24 24 25 25 25 26 26 27 27 27 28 29 29 30 30 31 32 34 35 36 37 38 39 39 40 41 42 43 45 46 47 49 50 52 53 55 57 59 61 63 65 67 69 71 73 75 77 78 80 81 82 82 83 83 83 85 86 86 86 84 84 84 81 82 85 84 84 84 82 82 84 83 83 81 81 84 80 77 81 80 79 77 75 78 78 77 76
27 27 27 27 27 27 27 27 28 28 28 28 29 29 29 30 30 31 32 32 33 34 34 35 35 36 37 37 38 39 40 41 42 43 45 46 48 50 51 53 55 57 59 62 64 66 67 69 71 73 74 75 76 76 77 79 80 80 79 79 77 79 79 76 79 81 80 80 79 78 79 80 79 78 76 79 82 75 73 78 76 75 73 73 75 75 73 72
28 28 28 28 29 29 29 29 29 30 30 30 30 30 30 31 31 31 32 32 32 32 32 33 33 33 34 34 34 35 35 36 37 38 39 41 42 44 45 47 49 51 53 54 56 58 60 62 64 66 68 68 69 70 71 73 72 71 72 72 72 74 74 72 74 75 74 75 74 74 75 74 73 73 73 77 77 69 70 75 72 71 71 69 70 71 70 69
29 30 30 30 30 31 31 31 32 32 32 32 32 32 32 32 32 32 32 32 32 32 32 32 32 32 32 32 32 31 32 32 32 33 34 36 37 38 40 41 43 45 46 48 50 51 53 56 57 59 60 61 63 63 65 65 65 65 67 67 67 69 68 67 69 68 69 70 68 69 69 69 68 68 71 74 69 63 68 73 69 68 67 66 66 67 68 66
31 32 32 32 32 33 33 33 34 34 34 34 34 34 34 34 34 34 34 33 33 33 32 32 32 32 32 31 30 29 29 28 29 29 30 31 31 33 34 35 37 39 41 42 43 45 47 49 50 52 53 55 56 55 57 59 59 59 61 61 61 62 61 62 63 63 64 64 62 64 64 64 63 64 69 69 60 59 67 68 64 63 63 62 62 63 64 63
32 33 33 34 34 34 35 35 36 36 36 36 36 36 35 35 35 35 35 35 35 34 34 33 32 32 32 30 29 28 27 26 26 26 26 26 26 27 28 30 31 33 35 36 38 39 41 42 43 45 47 48 47 48 52 53 52 53 54 55 55 55 56 58 59 57 58 57 55 59 59 59 60 62 66 61 52 56 64 63 60 60 60 59 58 59 61 59
32 33 34 34 35 35 36 36 36 37 37 37 36 36 36 36 36 37 37 37 36 36 35 34 33 32 32 31 30 28 27 26 25 24 24 23 23 23 24 24 26 27 29 31 32 34 35 36 37 38 40 40 40 43 47 46 46 48 48 50 49 49 52 54 51 49 52 52 51 54 54 54 57 59 59 51 47 55 60 59 58 57 56 55 55 56 57 55
33 33 34 34 35 36 36 37 37 37 37 37 37 37 37 37 37 37 38 38 38 38 37 35 34 33 32 32 30 29 28 27 26 24 23 22 21 21 22 22 22 23 24 26 28 29 30 31 32 33 34 34 36 39 40 40 41 43 42 45 45 45 48 49 44 44 49 49 47 50 50 51 55 56 51 44 46 54 57 55 55 54 52 52 52 53 54 51
34 34 35 35 35 36 36 37 37 38 38 38 38 38 38 37 37 38 39 39 40 39 38 37 36 35 34 33 31 31 30 29 27 26 24 23 22 22 23 23 23 23 23 24 24 26 27 27 28 29 30 31 33 35 36 36 37 39 39 40 41 41 44 43 38 41 47 44 42 46 47 48 54 53 43 38 44 52 54 52 51 51 49 50 50 50 51 48
33 33 34 34 34 34 34 35 36 37 37 38 39 39 39 39 39 39 39 40 40 41 40 39 38 37 36 34 33 33 32 31 30 28 27 25 24 24 24 24 25 25 25 25 25 25 25 26 27 27 28 29 31 31 32 33 34 35 35 35 37 38 39 39 37 38 42 40 39 42 45 47 51 50 39 34 42 52 54 50 47 48 48 48 49 48 48 47
31 31 30 30 30 30 31 31 32 33 34 36 37 38 39 39 40 40 40 40 41 41 41 40 40 38 37 37 36 35 34 33 32 31 30 29 28 27 27 26 26 26 26 27 27 27 27 27 28 28 29 30 30 31 31 31 31 31 30 31 34 34 35 37 37 34 33 37 41 41 43 46 48 47 38 33 41 52 53 49 46 47 48 48 48 47 45 44
28 28 28 28 28 28 28 28 29 30 31 32 34 35 36 38 39 40 40 41 41 41 41 42 41 39 39 39 38 37 36 35 34 34 33 33 32 31 30 29 28 28 28 28 29 29 30 31 30 30 30 30 31 32 31 31 32 33 33 33 33 34 34 37 37 31 27 35 46 44 42 45 46 47 41 33 39 49 52 51 48 45 48 48 47 46 44 43
26 27 27 27 27 27 27 27 28 28 29 29 30 32 33 34 36 38 39 40 40 41 42 42 41 40 40 40 40 39 38 38 37 36 36 36 35 35 34 33 32 32 31 31 30 31 33 32 32 32 30 30 32 32 32 32 35 37 37 36 37 38 40 42 39 32 30 38 47 46 43 44 45 48 45 35 36 45 51 52 51 47 47 47 45 45 44 42
27 27 27 27 27 27 27 27 27 28 28 28 29 29 30 31 33 34 36 38 39 40 41 42 42 41 41 41 41 40 40 39 38 38 39 39 38 37 37 37 36 36 35 34 33 35 36 34 34 33 32 33 33 33 36 37 38 39 40 40 40 42 46 47 41 36 36 41 47 48 47 46 46 47 48 41 36 40 48 52 52 50 47 45 45 46 45 42
28 28 28 28 28 27 27 27 27 27 27 28 28 28 29 30 30 31 32 35 37 39 40 41 42 41 41 41 41 41 41 40 39 40 41 41 41 40 40 40 40 40 39 38 38 39 38 38 37 35 37 37 34 36 40 40 41 42 43 43 42 43 47 48 43 38 37 42 49 51 48 47 48 48 48 46 41 38 43 51 53 51 47 45 45 46 45 44
29 29 29 29 29 29 28 28 28 28 28 28 28 29 29 29 29 30 30 32 34 36 38 40 41 41 41 42 42 42 41 40 40 41 43 43 42 42 42 43 42 41 41 41 42 42 42 42 40 39 42 40 37 39 42 42 44 44 45 45 45 46 49 49 44 39 40 46 51 52 48 47 50 51 48 47 46 41 42 48 52 51 49 45 45 46 45 45
31 31 31 31 31 31 30 30 29 29 29 29 30 30 29 29 30 30 30 31 32 34 35 37 38 40 41 42 43 43 42 42 41 42 45 44 43 43 44 44 44 44 44 43 44 45 45 44 44 44 45 43 42 43 44 45 46 46 47 47 48 49 49 49 46 42 46 52 52 50 49 49 52 52 49 48 49 47 45 47 50 52 51 47 46 46 46 46
33 33 33 33 33 32 32 32 31 31 31 31 31 31 31 31 31 31 31 31 33 34 34 35 36 37 39 41 42 43 43 43 42 43 46 45 44 45 45 45 46 46 45 44 45 47 47 45 47 48 46 47 47 47 47 48 49 49 49 49 49 51 50 49 48 46 50 53 53 51 50 52 55 51 49 51 51 50 49 48 50 52 53 50 48 48 47 47
35 35 35 35 35 35 34 34 34 33 33 33 33 33 33 33 32 32 32 33 35 35 34 35 36 36 37 39 41 42 42 43 43 43 46 47 46 46 47 46 47 48 46 46 47 48 48 46 48 50 47 49 51 50 51 51 51 52 52 51 51 52 52 51 51 50 52 54 53 52 53 55 55 52 51 54 53 51 51 51 52 53 53 53 52 50 49 49
37 37 37 38 37 37 37 36 36 36 35 35 35 35 35 35 35 35 35 36 37 37 35 36 37 37 38 39 41 41 42 43 43 44 46 48 47 48 49 48 49 50 48 48 49 50 49 48 49 51 49 51 52 52 53 52 53 55 54 54 54 53 54 55 55 54 55 56 52 52 56 56 56 55 55 56 53 52 54 54 53 53 53 54 54 52 51 50
38 39 39 39 40 39 39 39 39 38 38 38 37 37 38 38 38 38 39 39 40 39 38 38 39 39 39 41 42 42 42 43 43 44 46 47 48 48 50 49 50 52 50 50 52 52 51 50 51 53 52 53 54 54 54 53 55 56 56 57 57 55 56 57 57 57 57 57 53 54 58 57 57 58 58 57 55 54 56 56 54 54 54 54 55 55 53 52
39 40 40 41 41 41 41 41 41 41 41 41 40 40 41 41 41 42 43 43 43 42 41 42 42 42 43 43 44 44 44 44 44 45 46 47 48 48 49 50 50 52 52 52 54 54 53 52 53 55 55 55 56 56 55 55 56 58 58 59 59 59 59 60 60 60 60 58 56 59 61 59 58 60 61 60 57 56 56 56 56 56 55 55 56 56 56 55
40 40 41 41 42 42 43 43 44 43 44 44 43 43 43 43 45 46 47 47 47 46 44 44 45 46 46 46 47 48 47 47 46 47 48 48 49 50 50 51 51 52 53 53 54 55 54 54 55 56 56 57 57 57 57 56 57 58 59 60 61 61 62 62 62 63 62 59 60 63 64 62 59 60 64 64 58 55 56 57 58 59 59 59 58 58 58 58
40 41 41 42 42 43 44 44 45 45 45 45 45 45 45 45 47 49 49 49 49 49 48 48 48 48 49 49 51 52 51 50 50 51 51 51 52 53 53 53 54 54 54 54 55 55 55 55 56 56 57 57 58 59 58 58 59 60 60 61 62 62 63 63 64 65 63 62 64 66 66 64 60 60 65 67 61 56 57 59 61 61 61 61 62 62 62 62
41 41 42 42 43 44 44 45 45 45 46 46 46 46 46 48 50 51 51 51 51 52 51 50 50 50 50 52 53 54 54 54 54 54 55 55 55 56 57 57 57 57 58 57 57 57 57 57 57 57 57 58 58 59 59 59 59 61 62 63 63 65 65 64 65 67 65 65 68 68 68 66 61 61 66 68 65 61 60 62 64 65 64 63 64 64 64 65
41 42 43 43 44 45 45 46 46 46 47 47 47 47 48 50 51 52 52 52 52 53 53 52 52 52 52 53 54 55 57 57 56 56 57 58 58 59 60 60 60 60 61 61 60 61 61 61 60 60 60 60 60 60 61 60 60 61 62 63 64 66 68 66 67 69 68 68 69 68 68 66 62 63 67 69 68 66 63 64 66 68 67 66 66 67 67 67
42 43 43 44 44 45 46 46 47 47 47 48 47 48 50 51 52 52 53 53 54 54 53 53 54 53 53 55 55 55 58 58 57 57 59 59 60 61 62 62 63 63 64 64 64 65 64 64 64 64 63 62 62 63 64 63 63 63 64 65 65 67 69 68 68 69 69 69 69 68 68 67 65 65 68 70 69 68 68 67 67 70 71 70 69 69 69 69
43 43 43 44 45 46 46 47 48 48 48 49 49 49 51 52 52 53 54 54 54 55 54 54 55 54 54 56 56 56 58 59 57 58 60 60 60 61 62 63 64 65 65 66 67 67 66 66 68 69 67 65 65 66 68 68 67 66 67 67 68 69 71 71 70 70 70 70 69 69 69 68 67 67 69 70 69 70 73 71 69 70 72 73 73 72 72 72
43 44 45 45 46 47 47 48 48 48 48 48 48 48 49 50 51 51 52 53 52 53 53 53 53 53 54 56 57 56 57 59 58 58 60 60 60 62 63 64 65 65 66 66 66 67 67 67 69 70 70 69 69 70 71 71 70 71 71 70 72 73 75 75 74 72 73 72 70 70 71 68 67 68 68 70 70 70 73 74 73 73 72 73 74 75 74 74
45 45 45 45 45 45 45 44 44 44 44 44 44 45 45 46 47 47 48 49 48 48 49 49 49 49 50 53 54 54 55 56 56 56 57 58 60 60 61 63 64 65 66 66 66 67 68 67 68 70 70 71 71 72 73 73 72 73 74 75 76 77 77 79 79 76 77 76 72 72 73 71 69 68 68 71 72 72 74 76 76 75 74 73 74 76 76 76
44 43 43 42 42 42 41 41 41 40 41 41 43 44 44 43 44 44 45 45 44 44 44 44 45 44 46 47 49 50 50 50 52 52 52 54 56 56 57 59 61 61 62 63 64 66 67 66 66 69 70 71 72 71 72 73 73 74 76 77 79 79 79 81 83 81 81 80 77 75 76 75 73 71 71 73 75 74 76 78 78 77 77 75 74 75 75 75
41 39 40 40 39 39 39 39 39 38 39 40 41 42 41 40 39 40 41 41 40 41 41 40 41 41 42 43 44 47 47 46 48 49 49 50 51 52 53 54 56 56 58 59 60 62 64 64 63 65 68 69 70 70 70 71 73 76 77 77 79 80 80 82 84 85 84 83 81 80 79 78 75 74 75 77 78 78 78 80 80 79 79 79 77 75 74 74
39 38 39 40 39 39 39 38 37 35 35 37 37 36 36 36 35 36 39 39 38 38 39 39 39 39 40 41 42 44 45 45 46 48 49 49 50 51 50 50 52 54 55 57 58 59 61 61 59 60 64 66 67 68 68 68 70 74 76 77 78 80 81 82 84 84 85 86 85 83 81 79 77 78 80 80 82 83 82 83 83 82 82 81 80 78 76 76
38 37 37 38 37 37 36 34 32 32 33 34 35 34 35 36 35 34 37 39 39 38 38 39 40 39 40 41 43 44 45 46 46 48 50 51 53 52 48 49 52 54 55 57 59 59 60 61 58 58 61 63 64 65 67 67 68 71 75 76 76 78 80 82 82 82 83 86 87 86 83 78 77 80 81 82 85 86 85 85 85 86 86 85 83 83 81 80
37 36 35 35 34 33 33 32 31 32 33 34 35 34 35 37 36 35 36 37 39 40 40 41 42 42 43 44 45 47 47 48 48 50 52 54 56 54 50 51 54 55 57 59 60 59 60 63 61 59 60 61 62 65 67 67 68 71 75 76 76 78 79 80 81 80 81 84 85 86 84 78 77 80 82 83 86 86 85 85 85 88 89 89 88 87 86 86
34 33 32 32 32 32 33 33 32 33 34 35 36 35 34 37 37 37 38 38 39 42 42 43 44 45 46 47 47 49 50 49 49 52 53 54 57 55 53 55 56 55 57 60 61 59 60 65 64 59 59 60 61 64 66 69 71 73 75 76 77 78 78 80 81 80 80 80 81 83 83 78 74 78 82 84 85 85 84 85 86 88 89 90 90 89 90 90
31 30 30 32 32 32 34 35 34 34 34 35 38 37 36 38 38 39 41 41 40 43 45 46 46 47 48 49 49 50 51 50 50 52 53 54 57 55 55 57 57 57 57 58 62 63 62 65 64 60 60 60 60 63 66 70 74 75 74 75 75 76 77 79 81 82 81 78 78 82 83 78 74 77 80 81 82 83 83 85 87 88 88 89 90 90 91 92
30 30 31 33 35 35 35 35 35 36 35 36 38 39 40 41 40 40 44 45 43 43 46 48 48 49 50 50 51 51 52 52 51 53 54 55 57 57 57 58 57 59 58 57 61 65 65 65 64 62 61 59 59 62 66 70 73 73 73 73 74 74 76 78 80 81 80 78 79 83 83 80 77 77 78 79 79 80 82 84 86 87 88 89 88 89 91 93
32 32 33 34 35 36 36 36 37 37 36 37 39 40 42 44 43 40 43 48 48 46 48 50 50 51 52 52 52 52 53 54 54 54 54 55 57 58 60 59 58 59 59 59 61 64 65 65 64 64 62 59 59 62 66 70 71 71 71 71 71 72 74 77 78 79 79 79 80 81 81 81 79 76 77 79 80 81 82 84 85 85 87 87 86 87 89 91
33 33 34 35 35 36 37 37 38 40 39 39 40 42 44 46 47 44 43 48 52 51 52 53 52 53 54 53 53 53 53 55 56 56 55 56 57 58 60 61 61 60 59 60 62 63 65 65 64 64 62 60 60 61 64 68 69 69 69 68 67 68 71 75 77 77 78 80 79 77 78 82 79 75 75 78 81 84 84 85 85 86 87 86 85 86 87 89
35 34 35 36 36 37 39 39 40 42 43 42 42 45 46 48 50 50 48 49 52 53 54 54 55 56 56 55 55 55 55 57 57 57 57 57 58 59 60 62 63 63 61 61 61 63 65 65 65 65 62 59 60 61 64 67 67 67 66 63 62 64 68 73 75 74 75 79 79 76 77 81 78 74 73 75 80 83 85 86 87 87 87 87 86 86 86 87
36 36 36 39 40 40 42 43 43 44 45 45 46 48 49 50 52 54 53 52 53 55 56 56 56 58 59 59 58 57 57 57 58 58 59 59 60 60 61 62 63 65 65 63 62 62 62 63 65 66 63 59 60 62 64 66 66 66 63 58 57 61 67 70 71 71 74 78 79 77 77 77 74 72 73 75 78 81 83 85 86 86 86 86 86 86 86 86
39 40 40 41 44 44 45 47 47 48 48 47 49 52 52 53 55 56 56 56 55 56 57 57 57 58 60 61 61 60 59 58 58 59 60 61 62 61 62 62 63 65 66 65 65 65 64 63 64 65 63 58 58 64 66 66 67 64 57 52 55 62 66 69 70 72 74 76 76 77 77 73 70 72 76 77 76 77 79 81 82 83 83 84 84 84 84 84
42 44 44 44 47 48 48 49 50 51 52 51 53 54 54 55 57 57 58 59 58 58 58 59 59 59 60 61 62 62 60 58 59 61 61 62 63 62 62 63 64 65 66 66 67 67 67 65 64 65 63 55 57 65 67 66 67 58 48 49 59 66 68 69 70 71 72 73 74 75 76 72 70 72 76 77 76 76 77 78 77 77 78 79 81 81 81 80
46 47 47 47 49 51 51 52 53 53 53 54 56 57 55 56 58 57 58 61 62 61 61 60 60 60 61 62 63 62 60 59 61 62 61 62 63 63 63 63 64 65 66 68 69 68 69 68 65 67 63 54 55 65 68 66 60 49 46 56 65 67 68 67 68 68 70 73 74 73 73 73 72 72 73 75 77 76 75 74 74 74 76 76 77 77 76 75
Wind_Direction
252 251 250 250 249 249 249 249 248 248 248 248 248 248 249 249 250 251 251 252 252 253 253 254 254 254 254 254 255 255 255 255 255 255 255 255 255 255 255 256 256 257 257 258 258 259 259 260 260 260 261 261 261 262 262 262 263 263 264 264 264 264 264 264 264 265 266 269 271 272 269 268 268 268 270 270 270 271 271 271 271 271 273 273 273 273 274 274
251 250 249 249 249 249 249 249 249 249 249 249 249 249 249 250 250 251 251 252 252 253 254 254 254 255 255 255 256 256 256 256 256 256 256 256 256 256 256 256 256 257 257 257 258 258 259 259 260 260 260 261 261 262 262 262 263 263 263 263 264 264 264 264 265 267 269 270 270 268 267 267 267 268 269 269 270 270 270 270 271 271 272 273 273 273 272 271
249 248 248 248 248 249 249 249 249 249 249 249 249 249 250 250 250 251 251 252 253 253 254 255 255 256 256 256 257 257 257 257 257 257 257 257 257 257 257 257 256 257 257 257 258 258 258 259 259 260 260 260 261 261 261 262 262 262 263 263 263 263 264 265 266 268 268 268 267 267 267 266 267 267 267 268 269 269 269 269 270 271 272 273 272 270 269 270
246 245 245 245 246 247 248 249 249 250 250 250 250 250 250 251 251 251 252 252 253 254 254 255 256 256 257 257 258 258 258 258 258 258 257 257 257 257 257 257 257 257 257 257 257 257 258 258 258 259 259 260 260 260 261 261 261 262 262 262 262 263 264 265 266 266 265 265 265 265 265 265 266 267 266 267 268 267 268 269 270 270 271 270 268 267 269 270
241 242 243 244 245 246 247 248 249 250 250 251 251 251 252 252 252 252 253 253 253 254 255 256 256 257 258 258 259 259 259 259 258 258 258 258 258 258 258 257 257 257 257 257 257 257 257 257 257 258 258 258 259 259 259 260 260 261 261 260 261 262 263 264 264 263 263 263 264 264 264 266 267 266 265 266 266 266 268 269 269 268 268 267 266 268 270 270
240 241 243 245 246 246 246 247 248 248 249 250 251 251 252 253 253 254 254 254 255 255 256 257 258 259 259 259 260 260 259 259 259 259 258 258 258 257 257 257 257 257 256 256 256 256 256 256 256 256 257 257 257 257 258 258 259 259 259 260 260 261 261 262 262 261 261 262 263 263 263 265 265 263 263 264 265 267 267 267 267 266 266 266 267 268 268 268
245 245 246 248 248 248 248 248 247 248 249 249 250 251 252 253 254 255 256 256 257 257 258 259 260 260 261 261 261 261 260 260 260 259 259 258 258 257 257 256 256 256 255 255 255 255 255 254 254 255 255 255 255 256 256 257 257 257 257 258 258 259 260 260 259 259 260 261 261 261 262 262 262 262 264 265 265 265 265 265 265 265 266 267 267 267 267 267
250 250 250 250 250 251 251 250 250 249 250 251 252 253 254 255 256 256 257 258 259 259 260 260 261 262 262 262 262 262 262 262 261 260 260 259 258 257 257 256 255 255 254 254 254 253 253 253 253 253 253 254 254 254 255 255 255 255 256 257 257 258 258 258 257 258 258 259 260 260 260 261 261 262 264 264 264 264 264 264 264 265 266 265 265 266 267 267
253 253 253 252 251 252 252 252 252 252 252 253 253 254 255 256 257 258 258 259 260 261 261 262 263 263 263 263 264 264 264 263 262 262 261 259 258 257 256 256 255 254 254 253 253 253 252 252 252 252 252 252 252 252 253 253 253 254 255 256 256 256 256 256 256 257 258 258 259 259 259 260 261 262 262 262 263 264 263 263 264 264 263 263 264 265 265 266
254 254 254 253 253 253 254 254 254 254 254 255 255 255 256 256 257 258 258 259 260 261 262 262 263 263 264 264 265 265 264 263 263 262 261 260 259 258 256 255 255 254 253 253 253 252 252 252 251 251 251 251 251 252 252 252 253 254 254 254 254 255 255 255 256 257 258 258 259 259 259 260 261 261 261 260 262 263 262 262 262 262 262 262 263 264 264 264
255 255 255 255 255 255 255 256 256 256 256 257 258 258 258 257 257 258 258 259 260 260 261 262 262 263 264 264 265 266 265 264 263 262 261 260 259 258 257 256 255 254 253 252 252 252 252 252 251 251 252 251 251 251 252 253 253 253 253 253 253 255 255 255 256 256 257 257 258 259 259 259 259 259 258 259 262 262 260 261 262 262 262 262 262 263 264 264
256 256 256 257 257 257 258 258 258 258 259 259 259 260 259 259 258 258 258 259 259 260 260 261 262 263 263 265 266 266 266 266 264 263 261 260 259 258 258 257 256 254 253 253 252 252 251 251 251 252 251 251 251 252 252 252 251 252 253 253 253 254 255 254 254 254 255 257 257 257 257 257 257 256 257 258 261 261 260 261 262 262 261 261 262 263 264 264
257 258 258 259 259 259 259 260 260 260 260 260 260 260 260 259 259 258 258 258 259 259 259 260 261 262 263 264 265 265 266 267 267 266 263 261 260 258 258 257 256 256 255 253 253 252 252 252 251 251 251 251 252 252 251 251 251 252 252 253 252 253 253 252 253 254 255 256 255 255 256 256 256 255 257 259 260 260 260 261 260 260 261 261 262 263 264 264
261 261 261 261 261 261 261 261 261 261 261 261 261 260 259 258 258 258 258 257 258 258 258 258 259 260 262 262 263 264 265 266 267 267 265 264 262 260 259 258 258 257 256 255 254 253 253 252 252 252 252 252 251 250 251 251 251 251 251 252 251 251 252 252 253 255 255 254 253 254 256 256 255 255 257 260 259 259 260 261 261 261 261 262 262 263 264 265
264 264 263 262 262 262 262 262 262 262 262 262 261 260 259 258 257 257 257 257 257 257 257 257 257 258 259 260 262 262 262 263 264 266 266 265 264 263 262 262 262 261 259 258 256 255 254 253 252 252 252 251 250 251 252 251 251 251 251 252 252 251 252 253 253 254 253 252 253 256 256 257 257 256 258 261 260 260 260 260 261 261 262 263 262 263 264 264
265 265 264 263 263 262 262 262 262 262 262 262 261 260 259 258 257 256 256 256 256 256 256 256 256 256 257 258 259 260 260 261 262 263 264 264 264 262 262 263 265 266 266 265 262 259 257 255 254 253 253 252 251 252 253 252 253 253 251 253 254 253 254 254 251 252 255 254 255 258 258 258 259 257 256 260 262 261 260 260 262 263 263 263 263 263 264 264
265 264 264 264 263 262 262 261 261 262 262 261 261 260 259 258 257 256 256 256 256 257 257 256 256 256 257 258 258 258 259 260 260 260 261 261 260 260 260 259 260 262 264 267 267 266 262 260 257 256 255 254 254 254 254 253 253 254 254 256 256 255 256 255 248 250 258 259 256 258 259 259 261 261 256 254 258 260 261 261 262 264 263 263 263 262 263 263
264 264 264 264 264 264 263 262 261 261 261 261 260 260 259 258 257 257 256 256 256 257 256 256 256 256 257 257 257 258 259 259 259 259 259 259 257 257 257 257 257 258 258 260 262 264 264 262 259 256 255 255 256 257 257 256 256 258 259 257 257 256 257 256 251 248 258 264 259 256 258 260 263 264 258 249 253 258 262 263 260 261 263 262 261 262 261 261
264 264 265 265 265 266 265 264 263 262 261 261 261 261 260 259 258 257 256 256 256 256 256 256 256 256 256 257 257 257 257 258 258 258 258 257 257 256 255 255 255 256 257 256 257 258 259 259 259 256 255 256 256 256 258 258 258 257 256 255 257 259 259 258 255 250 251 258 261 259 258 260 264 266 260 247 250 257 260 262 260 258 259 260 261 261 259 257
264 265 265 266 266 267 267 266 265 264 263 262 262 262 261 260 259 258 258 257 257 256 256 256 256 256 256 257 256 257 257 257 257 257 257 257 256 256 255 254 253 253 253 254 255 256 255 256 257 257 257 256 254 256 258 257 255 254 254 254 255 256 256 256 256 254 248 249 256 260 260 259 260 264 263 251 246 255 259 260 260 257 256 258 259 259 257 256
263 264 265 266 266 267 267 267 267 266 265 264 263 262 262 262 261 260 259 258 258 257 257 257 257 257 257 257 257 257 257 257 258 258 257 257 256 256 255 254 253 252 251 251 253 254 254 255 256 257 257 255 253 254 255 255 255 256 256 254 253 254 255 256 257 255 251 250 254 257 259 260 259 260 263 259 247 249 257 260 259 258 255 254 256 257 257 257
262 262 263 264 265 266 266 267 268 268 268 267 267 265 265 265 264 263 261 260 259 258 257 257 258 258 258 258 258 258 258 258 259 258 258 257 257 256 256 255 253 254 254 252 251 251 253 253 254 256 256 254 253 253 252 253 253 254 255 255 255 255 256 258 259 256 254 253 254 255 255 257 260 259 259 261 255 247 251 259 260 257 254 253 254 256 258 259
260 260 261 262 263 264 265 266 267 268 269 270 270 269 268 268 267 266 265 263 262 260 259 258 258 258 258 258 258 258 258 259 259 259 259 258 258 258 256 256 256 255 254 252 252 253 252 253 254 254 255 255 254 253 254 254 254 253 254 255 255 255 255 256 257 257 255 252 251 255 256 256 258 259 258 259 259 253 247 253 259 259 255 252 253 256 258 259
259 259 260 261 262 263 264 264 265 267 268 269 270 270 271 270 270 269 267 267 265 264 262 260 259 259 259 259 259 259 259 259 258 259 260 259 259 259 257 258 257 255 254 253 254 254 252 252 254 252 253 255 254 253 255 255 255 255 255 255 256 256 256 257 256 253 254 254 253 253 256 258 258 258 259 260 258 256 251 249 255 260 259 254 253 256 258 259
259 259 260 260 261 262 263 264 265 266 267 268 269 269 270 271 271 271 270 269 267 266 265 264 262 261 261 261 261 260 260 259 259 259 261 261 260 259 259 259 258 257 257 256 255 255 254 253 253 253 252 253 253 252 254 255 255 256 255 256 256 257 257 257 257 253 252 255 256 255 255 257 258 257 259 260 257 257 256 252 251 256 260 259 256 256 257 259
259 259 260 260 261 262 263 264 265 266 266 267 268 268 269 270 270 271 271 270 268 267 268 267 266 264 263 263 263 262 262 262 260 260 261 262 261 260 260 260 260 260 258 258 257 256 256 255 254 255 253 253 253 251 252 253 254 255 255 255 255 257 257 257 256 255 254 254 255 257 257 256 257 257 257 258 257 257 258 256 253 253 257 260 260 259 258 258
259 259 260 261 262 263 264 265 265 266 266 267 267 268 268 269 269 269 269 267 267 268 269 268 267 266 265 264 264 264 263 263 262 261 262 263 262 262 262 261 262 262 260 260 259 258 258 257 257 257 255 254 254 253 252 252 253 255 255 254 254 255 257 257 255 254 254 255 254 255 257 257 257 257 255 256 256 258 259 258 256 255 256 259 260 261 260 260
259 260 261 261 262 263 264 265 266 266 266 267 267 268 268 268 268 268 266 265 266 267 267 266 266 266 265 265 265 265 264 263 263 263 263 263 263 263 264 263 262 263 263 261 261 260 259 259 259 259 257 256 256 255 255 254 253 254 255 255 255 254 255 256 256 255 254 254 254 254 255 255 257 257 255 254 254 255 258 259 259 257 257 258 260 261 261 261
260 261 262 262 263 264 265 266 266 267 267 268 268 268 269 269 269 268 266 266 265 265 264 265 265 265 264 264 264 264 264 264 264 264 264 264 264 264 264 264 263 264 263 262 262 262 261 260 260 260 260 259 259 258 257 256 256 256 256 256 257 256 255 255 256 256 256 255 255 255 253 252 254 257 257 255 252 252 255 258 260 259 258 258 259 260 261 262
261 262 263 263 264 265 266 266 267 268 268 269 269 269 270 270 269 268 268 268 267 266 265 264 264 264 264 264 263 263 263 264 263 263 263 264 264 264 264 264 264 264 263 263 263 263 262 262 261 260 261 261 261 261 260 259 259 259 258 258 258 258 257 257 257 257 257 257 256 255 255 253 252 256 259 257 253 252 254 256 258 259 259 258 258 259 260 260
263 264 265 265 266 267 267 268 268 269 269 270 270 271 271 271 270 269 269 269 270 269 267 266 265 265 265 264 264 263 263 262 262 261 262 262 262 263 263 263 263 264 264 263 264 264 264 263 262 262 262 262 262 262 262 261 261 261 261 260 260 260 259 259 259 259 258 258 257 256 256 255 254 255 258 259 257 254 254 255 256 257 258 260 259 259 259 259
265 266 266 267 268 268 269 269 270 270 271 271 271 272 272 271 270 270 270 270 270 270 268 268 267 266 265 265 264 264 264 263 261 261 261 261 261 261 262 262 262 262 263 263 263 264 263 263 263 262 262 262 262 262 262 262 262 262 262 262 262 261 260 259 260 260 259 258 258 258 258 258 257 257 258 260 259 256 254 255 256 256 256 258 260 260 259 259
267 268 268 269 269 270 270 271 271 272 272 272 272 272 272 270 270 270 270 270 269 269 270 269 269 267 266 265 265 265 265 264 263 262 262 262 261 261 262 262 262 262 263 263 262 262 262 262 262 262 262 262 262 263 263 262 262 262 262 262 262 262 262 261 260 260 260 259 259 260 261 260 259 259 260 260 260 259 257 255 257 257 255 255 257 259 259 259
269 269 269 270 271 271 271 271 272 272 272 272 272 272 271 271 271 271 271 270 270 270 270 270 269 268 267 267 266 266 266 266 265 265 264 263 263 263 262 262 262 262 263 263 262 262 262 263 263 262 261 262 262 263 263 262 261 261 261 262 262 262 262 262 261 261 261 260 260 261 261 261 260 260 260 261 262 262 259 257 257 258 258 256 254 256 257 258
270 270 271 271 271 272 272 272 272 273 273 272 272 272 272 272 271 271 271 271 271 271 270 269 270 269 268 268 267 266 266 267 267 266 266 265 265 265 265 264 263 263 263 263 263 264 264 264 264 263 262 261 261 261 262 262 262 261 261 262 262 262 262 262 261 261 261 260 261 261 260 260 261 260 261 262 262 262 262 259 257 256 258 258 257 256 256 257
272 272 273 273 273 273 273 274 274 274 274 273 273 272 272 272 272 271 271 271 271 272 271 270 270 270 270 269 268 267 267 267 267 267 268 267 267 267 267 266 266 266 265 264 264 265 264 264 265 265 264 263 261 261 261 261 262 262 261 261 262 262 262 262 261 260 261 260 260 261 261 260 260 260 261 262 261 261 262 261 259 257 256 257 259 258 258 257
274 275 275 275 275 275 275 275 275 275 275 275 274 272 271 272 273 272 272 272 272 272 272 272 271 271 271 270 270 269 268 269 268 267 268 269 268 268 268 269 269 268 268 268 267 266 265 265 265 266 266 265 264 263 263 263 262 262 262 262 261 261 262 263 262 261 261 261 260 260 261 261 260 260 260 261 261 261 261 261 260 259 258 256 257 259 259 260
275 276 277 276 276 275 276 276 275 276 277 276 275 273 272 272 273 273 273 273 273 272 272 273 273 272 272 273 273 272 271 271 271 270 269 269 270 269 269 269 270 270 270 270 270 269 268 267 267 267 267 266 266 265 265 266 265 264 263 263 263 262 262 262 263 262 261 261 260 259 260 260 260 260 260 260 260 260 261 261 261 260 260 258 257 257 259 260
276 278 278 277 276 276 276 276 276 277 276 274 273 274 275 274 274 274 274 273 273 274 274 274 274 274 274 275 276 276 275 275 275 274 272 271 271 271 270 271 272 272 272 271 271 271 271 270 269 270 269 268 268 267 266 266 266 265 264 263 264 263 263 263 263 263 262 261 260 259 259 259 259 260 259 260 260 260 260 261 261 261 261 260 259 258 258 259
277 278 277 277 277 278 277 276 275 274 272 271 272 273 275 275 274 275 276 275 274 274 275 275 275 275 276 277 277 278 279 279 278 278 277 276 274 272 272 274 275 274 274 273 272 271 271 270 270 270 271 271 270 270 269 268 267 267 266 264 264 264 263 263 263 264 264 264 262 260 258 259 259 259 259 259 260 260 260 260 261 261 261 261 261 260 259 259
276 276 275 275 276 276 276 275 273 272 270 271 273 274 274 274 273 273 275 277 277 277 277 278 278 279 279 280 281 281 282 282 282 282 282 281 279 277 277 278 278 277 277 276 275 274 274 273 271 269 270 271 271 271 271 269 269 268 268 266 265 265 264 263 263 263 264 264 264 263 261 260 260 261 260 260 260 260 260 261 262 262 262 262 262 262 261 260
275 273 272 272 272 272 273 273 273 273 273 274 273 273 274 275 274 273 273 275 278 279 280 281 281 282 282 283 283 283 283 283 283 283 282 281 281 282 283 281 279 279 279 278 278 278 278 277 273 271 270 271 271 271 270 269 268 267 267 267 266 265 265 265 265 264 264 265 266 266 265 263 262 262 261 260 261 261 261 261 262 262 263 262 262 262 261 261
272 271 270 271 271 273 275 275 274 274 275 276 275 272 272 273 275 275 275 275 277 279 280 280 281 282 283 283 282 282 282 282 282 281 281 281 282 283 283 281 280 280 280 281 281 281 279 278 276 275 274 273 272 271 271 270 267 265 264 265 265 266 267 267 266 266 265 266 267 268 267 264 264 263 261 260 261 261 261 261 261 261 262 262 262 262 261 261
271 271 273 274 274 274 276 276 276 274 274 275 276 275 273 272 274 276 276 275 275 277 278 279 280 282 282 283 283 283 283 283 282 282 282 282 282 283 282 281 281 281 281 283 283 282 279 279 279 278 276 274 274 273 272 270 268 267 266 266 266 267 267 267 267 267 266 266 266 267 266 266 264 263 263 262 263 263 263 262 262 261 261 261 262 262 262 261
273 273 274 275 276 275 274 274 274 273 273 273 274 275 275 274 274 276 278 278 277 277 279 281 282 283 283 283 284 284 284 284 283 282 282 283 283 283 281 280 281 282 282 282 281 281 281 281 281 280 279 277 276 275 273 271 270 269 269 268 267 267 267 267 267 267 267 266 265 264 265 264 263 263 264 264 264 264 263 263 263 262 262 261 262 262 262 262
272 273 272 273 274 275 275 274 274 273 272 273 274 275 277 277 277 276 279 282 282 282 282 283 284 284 284 284 284 284 284 284 283 283 283 283 283 282 281 281 281 281 282 281 280 280 281 281 282 282 281 280 278 276 274 273 271 270 269 268 268 268 268 268 268 267 267 265 264 264 265 264 262 262 263 263 262 261 260 260 261 261 261 261 261 261 262 262
271 272 273 273 273 274 276 276 277 277 276 275 277 278 279 280 281 281 281 282 284 285 285 285 286 284 284 284 284 283 283 283 283 283 283 283 282 281 281 282 281 281 281 281 280 281 281 281 282 281 281 281 279 277 275 274 272 271 270 269 269 269 269 269 268 267 267 266 265 264 265 264 262 261 261 262 262 261 260 260 260 259 260 260 259 259 260 261
274 274 275 276 276 277 278 278 279 280 280 280 281 282 282 283 284 285 285 283 284 285 285 286 286 285 285 284 283 283 283 282 283 284 284 283 281 281 281 282 283 283 282 280 280 281 281 283 282 281 281 282 280 278 276 274 273 271 270 270 270 271 269 268 267 267 268 267 266 264 263 264 263 262 261 261 262 262 261 261 260 259 259 259 259 259 259 260
278 278 279 280 280 280 281 281 280 281 282 283 284 284 284 285 286 286 286 285 284 285 285 285 285 285 285 285 284 283 282 283 284 285 283 282 281 281 282 283 284 284 283 282 281 280 280 282 282 282 282 282 282 280 276 274 272 271 271 272 273 272 270 269 269 268 267 266 266 265 264 264 266 266 264 261 260 260 260 261 261 261 261 260 260 259 259 259
281 282 282 283 283 283 283 284 284 284 284 285 285 285 286 286 286 286 286 286 285 285 285 285 285 285 285 285 284 283 283 284 284 283 282 281 282 282 283 283 283 283 284 284 283 282 281 281 282 282 282 283 282 279 275 273 272 271 274 278 277 272 269 268 267 266 265 266 267 268 267 266 267 268 266 264 262 262 261 261 261 261 261 261 261 261 260 260
282 283 283 283 284 284 284 284 284 285 286 287 285 285 286 286 286 287 288 287 287 286 286 285 285 285 284 284 284 283 284 284 282 280 281 282 283 283 283 283 283 283 284 284 283 283 283 283 283 282 281 281 280 276 274 273 272 276 282 280 272 267 265 265 266 267 268 269 269 269 269 269 268 266 267 267 266 265 264 263 263 263 263 263 262 262 261 261
283 283 283 284 283 283 284 284 284 284 285 286 286 286 286 286 286 287 288 288 289 288 287 286 286 285 285 284 283 283 284 283 281 281 282 282 282 283 283 283 283 283 284 284 284 285 285 285 284 282 281 280 276 274 273 272 275 283 283 272 266 266 267 268 268 269 270 270 270 270 270 270 268 267 267 267 267 266 266 267 267 267 266 264 263 262 261 260
Height
10640 10641 10642 10643 10644 10646 10647 10649 10652 10654 10657 10659 10661 10663 10665 10667 10669 10671 10673 10675 10677 10678 10679 10680 10681 10681 10682 10684 10687 10689 10691 10693 10695 10697 10698 10700 10701 10703 10706 10707 10709 10712 10714 10716 10717 10719 10722 10725 10726 10727 10728 10729 10729 10731 10733 10733 10734 10736 10738 10738 10738 10739 10736 10734 10732 10735 10733 10734 10753 10763 10757 10750 10751 10749 10747 10753 10748 10752 10756 10753 10757 10751 10754 10764 10763 10761 10756 10756
10637 10638 10639 10640 10641 10642 10644 10645 10647 10649 10651 10654 10655 10657 10659 10661 10663 10665 10667 10668 10670 10671 10672 10673 10674 10674 10676 10678 10680 10682 10683 10685 10687 10689 10690 10691 10692 10694 10696 10698 10700 10702 10705 10706 10708 10710 10712 10714 10716 10717 10718 10719 10719 10722 10723 10723 10725 10727 10729 10728 10730 10728 10723 10722 10723 10732 10734 10737 10745 10742 10743 10740 10738 10743 10741 10741 10740 10745 10746 10743 10747 10745 10748 10756 10756 10753 10748 10746
10634 10635 10636 10637 10638 10639 10641 10642 10643 10645 10647 10649 10650 10652 10654 10655 10657 10659 10660 10662 10663 10664 10665 10666 10667 10668 10670 10671 10673 10675 10676 10678 10680 10680 10681 10682 10683 10684 10686 10689 10691 10693 10695 10696 10699 10701 10702 10704 10706 10707 10708 10709 10710 10713 10713 10714 10716 10717 10720 10720 10718 10715 10712 10717 10722 10729 10730 10728 10729 10730 10733 10726 10728 10738 10733 10731 10733 10736 10735 10735 10739 10739 10743 10750 10748 10739 10736 10739
10632 10633 10634 10635 10636 10637 10638 10639 10640 10642 10643 10644 10646 10647 10649 10650 10652 10653 10655 10656 10657 10658 10659 10660 10660 10662 10663 10665 10666 10667 10669 10670 10671 10671 10672 10674 10675 10676 10677 10679 10681 10683 10685 10687 10689 10690 10693 10694 10695 10697 10698 10700 10701 10703 10703 10704 10706 10708 10711 10709 10706 10706 10707 10714 10719 10721 10719 10716 10719 10722 10719 10713 10724 10729 10723 10724 10724 10725 10726 10728 10733 10733 10738 10739 10733 10726 10728 10735
10630 10631 10632 10633 10634 10635 10636 10637 10637 10639 10639 10641 10642 10643 10644 10645 10647 10648 10649 10650 10651 10652 10653 10654 10655 10657 10658 10658 10660 10660 10662 10663 10663 10663 10664 10665 10666 10668 10669 10670 10671 10673 10675 10677 10679 10681 10683 10684 10686 10687 10688 10690 10691 10693 10694 10694 10697 10699 10699 10696 10698 10701 10700 10708 10713 10710 10707 10705 10709 10714 10708 10706 10720 10719 10714 10715 10711 10718 10721 10722 10727 10725 10728 10726 10720 10721 10725 10727
10628 10629 10630 10631 10632 10633 10634 10634 10635 10636 10636 10637 10638 10639 10640 10641 10643 10643 10645 10645 10647 10647 10648 10649 10650 10651 10652 10653 10653 10654 10655 10655 10655 10656 10657 10657 10658 10660 10660 10661 10663 10664 10666 10667 10669 10671 10672 10674 10676 10677 10679 10680 10681 10683 10684 10685 10688 10688 10688 10688 10692 10693 10692 10702 10704 10697 10696 10697 10700 10706 10701 10702 10712 10705 10703 10705 10703 10714 10715 10713 10718 10714 10717 10718 10713 10716 10718 10717
10627 10627 10628 10629 10630 10630 10631 10631 10632 10633 10633 10634 10635 10636 10637 10638 10639 10640 10641 10641 10642 10643 10644 10645 10646 10646 10647 10647 10648 10648 10648 10648 10649 10649 10650 10650 10651 10652 10652 10654 10654 10656 10657 10658 10660 10661 10663 10664 10666 10667 10668 10669 10671 10674 10675 10678 10679 10677 10679 10680 10684 10685 10686 10695 10692 10686 10689 10689 10692 10698 10695 10694 10699 10692 10697 10700 10696 10707 10706 10702 10707 10705 10711 10712 10705 10707 10710 10710
10624 10625 10626 10627 10627 10628 10628 10629 10630 10630 10631 10632 10632 10633 10634 10635 10636 10637 10637 10638 10638 10639 10640 10641 10641 10642 10642 10642 10642 10642 10642 10642 10643 10643 10644 10644 10644 10645 10645 10646 10647 10648 10649 10650 10651 10652 10654 10655 10656 10658 10659 10661 10664 10665 10666 10668 10667 10668 10671 10673 10678 10677 10679 10685 10679 10677 10682 10681 10684 10690 10686 10685 10689 10687 10694 10690 10685 10699 10699 10692 10698 10700 10705 10704 10697 10699 10703 10704
10622 10623 10623 10624 10625 10625 10626 10626 10627 10628 10628 10629 10630 10630 10631 10632 10633 10633 10634 10634 10635 10635 10636 10637 10637 10637 10637 10637 10637 10637 10638 10638 10638 10638 10638 10638 10638 10638 10639 10639 10640 10641 10642 10643 10644 10645 10647 10647 10648 10650 10650 10653 10655 10656 10657 10657 10659 10663 10664 10667 10670 10667 10670 10675 10669 10670 10675 10674 10678 10681 10677 10678 10682 10683 10686 10678 10677 10694 10691 10683 10691 10693 10696 10695 10691 10693 10696 10697
10619 10620 10620 10621 10622 10622 10623 10623 10624 10624 10625 10626 10627 10627 10628 10629 10629 10630 10630 10631 10631 10631 10632 10633 10633 10633 10633 10633 10633 10634 10634 10633 10633 10633 10633 10632 10633 10633 10633 10633 10634 10635 10635 10636 10637 10638 10639 10639 10641 10642 10643 10646 10647 10649 10649 10650 10655 10657 10656 10659 10660 10657 10663 10666 10661 10665 10667 10666 10671 10672 10670 10673 10676 10676 10675 10669 10673 10688 10681 10674 10683 10685 10687 10689 10686 10686 10688 10691
10616 10617 10617 10618 10619 10619 10620 10620 10621 10621 10622 10622 10623 10624 10625 10626 10626 10627 10627 10627 10628 10628 10629 10629 10629 10629 10629 10630 10630 10630 10630 10630 10629 10629 10629 10628 10628 10628 10628 10628 10628 10629 10630 10630 10631 10632 10633 10633 10635 10636 10638 10640 10640 10643 10643 10645 10649 10648 10648 10652 10653 10651 10657 10658 10656 10660 10658 10659 10665 10664 10664 10667 10669 10669 10664 10662 10672 10681 10670 10667 10677 10678 10680 10682 10680 10680 10680 10684
10613 10614 10614 10615 10615 10616 10616 10617 10617 10617 10618 10619 10620 10621 10621 10622 10623 10623 10623 10624 10624 10624 10625 10626 10626 10626 10626 10626 10627 10627 10626 10626 10625 10625 10625 10624 10624 10624 10624 10624 10624 10624 10625 10626 10626 10627 10627 10628 10630 10631 10633 10633 10635 10639 10638 10639 10641 10642 10642 10645 10647 10647 10650 10650 10649 10653 10651 10656 10660 10656 10657 10660 10661 10660 10653 10660 10674 10672 10660 10663 10671 10671 10672 10675 10675 10673 10672 10677
10610 10611 10611 10611 10612 10612 10613 10613 10613 10614 10615 10615 10616 10617 10618 10618 10619 10619 10620 10620 10620 10621 10622 10622 10623 10623 10623 10623 10623 10623 10623 10622 10622 10622 10622 10621 10621 10621 10621 10620 10620 10621 10621 10621 10622 10622 10623 10624 10626 10627 10627 10629 10633 10633 10630 10633 10635 10637 10637 10638 10642 10643 10642 10642 10644 10648 10648 10651 10654 10648 10651 10654 10653 10651 10648 10660 10671 10661 10653 10658 10663 10663 10665 10668 10670 10667 10666 10671
10607 10607 10608 10608 10608 10609 10609 10609 10610 10610 10611 10612 10612 10613 10614 10614 10615 10615 10615 10616 10616 10617 10618 10619 10619 10619 10620 10620 10620 10620 10620 10619 10619 10619 10618 10618 10618 10618 10618 10617 10617 10618 10618 10618 10618 10619 10619 10620 10622 10622 10623 10626 10627 10625 10624 10629 10630 10631 10633 10633 10636 10637 10635 10636 10642 10645 10642 10644 10646 10642 10646 10647 10644 10644 10648 10659 10662 10652 10649 10652 10655 10658 10660 10662 10663 10661 10662 10665
10603 10604 10604 10605 10605 10605 10605 10605 10606 10606 10607 10607 10608 10609 10609 10610 10611 10611 10611 10611 10611 10612 10613 10615 10615 10616 10616 10616 10616 10616 10616 10616 10616 10616 10616 10615 10615 10615 10615 10615 10615 10615 10615 10615 10615 10616 10616 10617 10619 10619 10620 10622 10621 10620 10622 10625 10625 10627 10629 10628 10630 10633 10630 10633 10641 10639 10634 10639 10641 10639 10642 10640 10636 10640 10649 10656 10653 10646 10645 10648 10650 10652 10655 10656 10657 10656 10656 10661
10600 10600 10600 10601 10601 10601 10601 10602 10602 10602 10603 10603 10603 10604 10605 10606 10606 10607 10607 10607 10607 10608 10609 10610 10611 10612 10612 10612 10613 10613 10612 10613 10613 10613 10613 10613 10613 10612 10612 10612 10612 10613 10613 10613 10613 10613 10614 10614 10615 10616 10617 10618 10618 10618 10619 10621 10622 10623 10625 10625 10626 10628 10626 10631 10637 10632 10629 10636 10638 10635 10637 10634 10628 10636 10650 10653 10646 10640 10639 10643 10646 10647 10650 10650 10650 10651 10651 10656
10596 10596 10596 10596 10597 10597 10597 10598 10598 10598 10598 10598 10599 10599 10600 10601 10602 10602 10603 10603 10603 10604 10605 10606 10607 10608 10609 10609 10609 10609 10609 10609 10609 10610 10610 10610 10610 10610 10610 10610 10610 10610 10610 10611 10611 10611 10611 10612 10612 10613 10614 10614 10615 10615 10616 10617 10618 10619 10621 10623 10623 10624 10624 10626 10630 10629 10627 10632 10634 10631 10631 10629 10624 10632 10648 10649 10641 10634 10633 10640 10643 10642 10644 10644 10644 10647 10647 10650
10592 10592 10593 10593 10593 10593 10593 10594 10594 10594 10594 10594 10595 10595 10596 10597 10597 10598 10598 10599 10599 10600 10601 10601 10603 10604 10605 10605 10605 10606 10606 10606 10606 10607 10606 10607 10607 10607 10607 10607 10608 10608 10608 10608 10609 10609 10609 10609 10609 10610 10610 10611 10612 10612 10613 10614 10616 10617 10619 10619 10618 10619 10620 10620 10624 10628 10629 10627 10627 10627 10627 10625 10623 10628 10640 10646 10639 10630 10629 10635 10639 10639 10639 10639 10639 10642 10644 10645
10589 10589 10589 10590 10590 10590 10590 10590 10590 10590 10590 10590 10591 10591 10592 10592 10593 10594 10594 10595 10595 10596 10596 10597 10598 10600 10600 10601 10601 10601 10602 10602 10603 10603 10603 10603 10603 10604 10604 10604 10605 10605 10606 10606 10606 10606 10606 10606 10606 10607 10608 10609 10610 10609 10611 10612 10613 10613 10613 10614 10615 10616 10616 10615 10619 10626 10629 10625 10619 10622 10625 10623 10622 10624 10631 10640 10637 10629 10627 10628 10632 10635 10634 10634 10636 10637 10639 10640
10586 10586 10586 10586 10587 10587 10587 10587 10587 10587 10587 10587 10587 10587 10588 10588 10589 10589 10590 10591 10591 10591 10592 10592 10594 10596 10596 10596 10596 10597 10598 10598 10599 10599 10599 10599 10599 10600 10600 10601 10601 10601 10602 10603 10603 10604 10603 10603 10604 10604 10606 10607 10607 10607 10608 10609 10609 10608 10609 10612 10613 10613 10612 10611 10616 10623 10626 10622 10616 10617 10621 10621 10621 10619 10622 10631 10634 10628 10624 10622 10625 10630 10630 10631 10632 10632 10634 10636
10583 10583 10583 10583 10583 10584 10584 10583 10583 10583 10583 10584 10584 10584 10584 10584 10585 10586 10586 10587 10587 10587 10587 10588 10590 10591 10592 10591 10591 10592 10593 10594 10596 10596 10595 10595 10595 10596 10597 10597 10597 10597 10598 10599 10600 10599 10599 10600 10601 10601 10603 10603 10604 10605 10605 10605 10606 10605 10606 10608 10609 10610 10608 10607 10613 10619 10620 10619 10614 10614 10616 10617 10617 10617 10617 10622 10628 10628 10622 10618 10619 10623 10626 10629 10628 10628 10629 10632
10580 10580 10580 10581 10580 10581 10580 10580 10580 10580 10580 10580 10580 10581 10581 10581 10582 10582 10583 10583 10583 10583 10583 10584 10585 10587 10587 10587 10587 10587 10588 10590 10592 10591 10590 10591 10591 10592 10593 10592 10592 10593 10594 10596 10595 10595 10596 10596 10597 10599 10599 10599 10602 10602 10601 10601 10602 10602 10602 10603 10605 10606 10604 10603 10608 10614 10616 10615 10609 10608 10612 10613 10612 10612 10614 10616 10620 10625 10622 10615 10613 10618 10622 10624 10624 10624 10626 10627
10577 10577 10577 10577 10577 10577 10577 10577 10577 10577 10577 10577 10577 10577 10577 10578 10578 10579 10579 10579 10579 10579 10579 10580 10581 10582 10582 10582 10582 10582 10584 10586 10587 10586 10585 10585 10587 10588 10588 10587 10588 10589 10590 10591 10590 10591 10592 10592 10594 10596 10594 10595 10599 10598 10597 10597 10597 10598 10598 10599 10601 10600 10599 10599 10604 10610 10611 10607 10603 10603 10608 10610 10607 10607 10610 10613 10614 10618 10619 10614 10609 10611 10616 10620 10620 10620 10622 10623
10574 10574 10574 10574 10574 10574 10574 10574 10574 10574 10574 10574 10574 10574 10574 10574 10574 10575 10575 10575 10575 10575 10575 10576 10577 10577 10577 10577 10577 10578 10580 10581 10583 10581 10579 10580 10583 10583 10583 10582 10583 10584 10584 10586 10586 10586 10587 10589 10590 10590 10590 10591 10593 10593 10593 10592 10592 10593 10594 10595 10595 10594 10595 10595 10600 10605 10602 10598 10599 10601 10605 10605 10601 10603 10607 10609 10609 10610 10612 10613 10609 10606 10609 10615 10617 10616 10618 10619
10570 10570 10570 10570 10571 10571 10571 10571 10571 10571 10571 10571 10570 10570 10570 10571 10571 10571 10571 10571 10570 10570 10571 10572 10572 10573 10573 10573 10572 10573 10575 10576 10578 10577 10573 10575 10578 10577 10577 10578 10577 10578 10580 10581 10581 10580 10581 10585 10584 10583 10586 10586 10586 10587 10587 10587 10587 10588 10588 10590 10590 10589 10590 10591 10593 10597 10596 10593 10595 10598 10600 10598 10596 10601 10604 10601 10603 10604 10605 10607 10607 10604 10604 10607 10611 10612 10613 10614
10565 10566 10566 10566 10567 10567 10567 10567 10567 10567 10567 10567 10567 10567 10567 10567 10567 10567 10567 10567 10565 10566 10568 10568 10568 10568 10568 10568 10567 10569 10570 10570 10572 10572 10569 10569 10571 10572 10571 10573 10572 10572 10575 10575 10575 10574 10575 10580 10578 10576 10581 10579 10579 10581 10580 10581 10582 10581 10583 10584 10584 10584 10584 10586 10587 10589 10589 10588 10591 10593 10593 10592 10592 10597 10598 10594 10597 10600 10599 10600 10602 10602 10601 10601 10603 10606 10608 10609
10561 10561 10562 10562 10562 10563 10563 10563 10563 10564 10564 10564 10564 10563 10564 10563 10563 10563 10563 10562 10561 10562 10564 10564 10563 10563 10564 10563 10563 10564 10565 10565 10566 10566 10565 10564 10565 10566 10565 10568 10567 10565 10569 10570 10568 10569 10570 10573 10572 10570 10574 10573 10572 10574 10574 10577 10576 10575 10577 10576 10578 10579 10578 10578 10579 10581 10582 10581 10587 10589 10585 10586 10588 10589 10589 10589 10593 10595 10593 10593 10595 10598 10599 10598 10598 10600 10602 10604
10557 10557 10557 10557 10558 10558 10559 10559 10559 10559 10559 10560 10560 10560 10559 10559 10559 10559 10558 10557 10557 10559 10560 10559 10558 10559 10559 10558 10558 10559 10559 10560 10561 10560 10560 10559 10560 10560 10559 10562 10561 10559 10563 10563 10561 10562 10564 10567 10566 10564 10566 10566 10566 10567 10568 10571 10570 10569 10571 10570 10571 10574 10572 10571 10571 10573 10574 10576 10582 10582 10577 10580 10581 10580 10581 10583 10588 10589 10587 10588 10590 10593 10594 10594 10594 10595 10596 10598
10553 10553 10553 10553 10553 10554 10554 10554 10554 10554 10555 10555 10555 10555 10555 10555 10554 10553 10552 10552 10552 10554 10555 10555 10554 10554 10554 10554 10553 10553 10553 10555 10556 10555 10554 10554 10554 10554 10554 10555 10555 10554 10556 10556 10555 10556 10558 10560 10560 10558 10559 10559 10560 10561 10563 10565 10563 10563 10565 10564 10564 10566 10565 10565 10565 10566 10567 10572 10576 10571 10568 10574 10575 10574 10573 10576 10581 10583 10583 10584 10585 10585 10587 10588 10588 10589 10590 10592
10548 10548 10548 10548 10548 10548 10549 10549 10549 10549 10549 10550 10550 10550 10550 10550 10548 10546 10546 10546 10546 10548 10550 10550 10549 10548 10548 10549 10548 10547 10548 10549 10550 10550 10549 10549 10548 10548 10548 10548 10548 10549 10549 10549 10549 10549 10551 10553 10553 10552 10552 10553 10553 10554 10556 10558 10557 10557 10558 10557 10557 10558 10558 10558 10559 10559 10562 10568 10566 10560 10560 10566 10571 10572 10566 10566 10574 10579 10580 10580 10578 10578 10579 10580 10581 10582 10583 10585
10544 10543 10543 10543 10543 10543 10543 10543 10543 10544 10544 10544 10545 10545 10545 10544 10541 10540 10540 10540 10540 10541 10542 10543 10543 10544 10543 10543 10541 10541 10543 10544 10544 10544 10543 10543 10542 10542 10542 10542 10542 10542 10542 10543 10542 10543 10545 10546 10546 10546 10546 10547 10547 10547 10549 10551 10551 10551 10551 10550 10550 10550 10550 10552 10551 10551 10557 10559 10554 10551 10554 10558 10567 10570 10561 10558 10567 10575 10576 10573 10571 10572 10573 10572 10573 10574 10575 10577
10539 10538 10538 10538 10538 10538 10538 10538 10538 10538 10538 10539 10539 10539 10539 10537 10534 10533 10534 10535 10534 10533 10535 10536 10537 10538 10537 10536 10534 10534 10535 10536 10537 10537 10536 10536 10536 10535 10535 10535 10536 10536 10535 10536 10537 10537 10537 10538 10538 10539 10540 10540 10540 10540 10541 10544 10544 10544 10543 10543 10543 10542 10541 10545 10545 10543 10548 10549 10545 10545 10548 10553 10563 10563 10556 10554 10558 10565 10568 10566 10563 10564 10566 10567 10565 10565 10567 10568
10533 10533 10533 10533 10533 10532 10532 10532 10532 10532 10532 10532 10533 10533 10531 10529 10528 10527 10527 10528 10528 10526 10528 10530 10529 10530 10531 10529 10528 10528 10526 10527 10530 10530 10529 10529 10529 10528 10528 10528 10529 10529 10528 10528 10529 10529 10529 10530 10531 10532 10533 10534 10534 10534 10534 10536 10537 10536 10536 10535 10535 10533 10531 10536 10537 10535 10539 10541 10539 10541 10543 10548 10557 10555 10549 10548 10550 10555 10559 10558 10555 10553 10557 10561 10559 10557 10558 10559
10528 10528 10528 10528 10527 10527 10526 10526 10526 10526 10526 10526 10527 10526 10523 10522 10521 10520 10520 10521 10521 10520 10522 10522 10521 10523 10523 10521 10521 10522 10518 10518 10522 10522 10521 10522 10521 10520 10521 10521 10521 10521 10520 10520 10520 10521 10522 10523 10523 10524 10526 10528 10529 10527 10526 10527 10528 10529 10528 10526 10527 10525 10522 10525 10528 10527 10530 10532 10532 10536 10537 10540 10547 10546 10541 10541 10544 10546 10546 10549 10549 10545 10546 10549 10551 10550 10550 10551
10523 10522 10523 10522 10522 10521 10521 10521 10520 10520 10520 10520 10520 10518 10517 10515 10515 10514 10513 10513 10514 10513 10514 10514 10514 10515 10515 10512 10513 10515 10512 10511 10515 10514 10512 10514 10514 10512 10512 10512 10512 10513 10512 10512 10512 10513 10516 10516 10513 10514 10518 10522 10522 10520 10517 10518 10520 10520 10520 10519 10519 10517 10513 10515 10519 10519 10520 10522 10526 10528 10528 10533 10537 10536 10534 10534 10537 10536 10533 10536 10540 10538 10537 10537 10540 10542 10542 10543
10517 10517 10517 10517 10516 10516 10515 10514 10514 10514 10513 10513 10513 10512 10511 10509 10508 10508 10506 10506 10507 10506 10506 10507 10507 10507 10506 10504 10505 10507 10505 10504 10506 10506 10504 10505 10505 10504 10503 10503 10503 10504 10503 10504 10506 10505 10507 10508 10505 10505 10509 10512 10513 10511 10509 10511 10512 10511 10511 10512 10510 10506 10504 10504 10508 10511 10510 10512 10520 10519 10518 10525 10528 10528 10528 10526 10527 10527 10523 10523 10526 10528 10530 10530 10530 10531 10533 10534
10512 10512 10511 10511 10510 10510 10509 10509 10508 10508 10507 10507 10506 10504 10505 10504 10502 10502 10501 10500 10501 10500 10499 10499 10500 10501 10499 10496 10497 10498 10498 10497 10498 10499 10497 10496 10496 10497 10496 10495 10494 10494 10495 10495 10496 10495 10497 10500 10499 10497 10499 10500 10500 10502 10502 10502 10504 10503 10502 10501 10498 10498 10498 10494 10496 10502 10500 10502 10511 10512 10509 10515 10518 10520 10522 10517 10515 10518 10514 10511 10514 10517 10519 10523 10523 10522 10523 10525
10507 10507 10506 10505 10504 10504 10504 10503 10503 10503 10502 10500 10499 10497 10499 10499 10497 10496 10495 10494 10495 10494 10494 10494 10493 10494 10492 10491 10490 10489 10491 10491 10490 10491 10491 10488 10488 10490 10489 10486 10486 10487 10487 10486 10486 10485 10487 10491 10492 10489 10489 10489 10489 10493 10495 10493 10493 10493 10491 10490 10487 10488 10490 10486 10484 10488 10489 10491 10499 10503 10501 10504 10508 10512 10513 10508 10505 10507 10505 10501 10504 10507 10508 10511 10514 10514 10516 10518
10502 10502 10500 10498 10499 10498 10498 10498 10498 10499 10496 10494 10493 10492 10493 10493 10492 10491 10489 10489 10490 10488 10488 10489 10488 10488 10487 10486 10484 10482 10484 10485 10483 10482 10482 10482 10482 10482 10481 10480 10480 10480 10479 10478 10478 10477 10477 10480 10484 10482 10479 10479 10480 10482 10486 10484 10481 10479 10480 10481 10478 10476 10478 10477 10474 10474 10477 10480 10486 10491 10492 10495 10501 10503 10500 10498 10496 10496 10496 10493 10493 10497 10498 10499 10503 10506 10509 10510
10498 10498 10495 10493 10493 10493 10493 10493 10493 10493 10491 10489 10489 10489 10488 10487 10488 10487 10484 10483 10485 10484 10483 10483 10483 10483 10482 10481 10479 10478 10478 10478 10477 10475 10474 10475 10474 10474 10476 10476 10474 10472 10471 10470 10469 10469 10469 10472 10477 10476 10470 10470 10471 10472 10473 10474 10472 10468 10466 10468 10468 10466 10466 10465 10464 10465 10466 10466 10470 10476 10482 10489 10492 10490 10489 10489 10486 10484 10485 10485 10485 10487 10488 10490 10493 10496 10499 10500
10493 10493 10490 10489 10489 10488 10488 10488 10489 10488 10486 10485 10485 10485 10484 10482 10483 10483 10480 10478 10478 10479 10479 10477 10477 10477 10476 10475 10474 10473 10472 10471 10471 10469 10467 10466 10464 10465 10471 10471 10466 10464 10463 10461 10459 10461 10462 10462 10467 10469 10464 10463 10464 10462 10462 10463 10462 10457 10453 10455 10457 10455 10453 10452 10454 10458 10456 10452 10455 10460 10469 10482 10484 10478 10479 10479 10474 10473 10475 10477 10478 10476 10477 10480 10482 10484 10486 10488
10488 10488 10486 10485 10484 10484 10483 10483 10484 10483 10482 10481 10480 10480 10479 10477 10477 10478 10477 10475 10473 10473 10473 10472 10472 10471 10470 10470 10469 10467 10466 10466 10465 10463 10461 10458 10455 10458 10463 10462 10459 10457 10455 10452 10451 10455 10454 10450 10454 10459 10458 10457 10458 10454 10451 10451 10451 10446 10441 10443 10444 10441 10442 10441 10443 10448 10446 10443 10446 10447 10454 10470 10473 10466 10467 10467 10462 10463 10467 10469 10469 10466 10465 10467 10470 10473 10474 10474
10483 10482 10482 10481 10480 10480 10478 10478 10479 10478 10477 10476 10474 10475 10475 10473 10472 10472 10471 10471 10470 10468 10468 10466 10466 10465 10465 10464 10463 10461 10460 10460 10460 10456 10454 10453 10448 10451 10454 10451 10450 10451 10448 10445 10443 10446 10445 10438 10441 10449 10450 10450 10449 10446 10442 10439 10435 10433 10432 10432 10432 10432 10434 10432 10432 10435 10435 10437 10440 10436 10437 10453 10460 10454 10453 10454 10451 10454 10458 10458 10456 10455 10454 10454 10456 10460 10462 10462
10478 10478 10477 10476 10475 10475 10474 10473 10473 10473 10473 10472 10469 10469 10469 10468 10468 10467 10465 10465 10466 10464 10462 10461 10460 10459 10458 10457 10456 10455 10453 10454 10454 10449 10448 10446 10442 10444 10446 10442 10442 10441 10441 10440 10435 10433 10434 10430 10432 10438 10439 10440 10441 10437 10433 10425 10419 10420 10424 10424 10425 10427 10425 10422 10421 10422 10424 10431 10432 10424 10424 10438 10446 10441 10440 10442 10442 10444 10446 10443 10442 10443 10443 10443 10445 10447 10448 10449
10473 10473 10473 10471 10470 10470 10469 10469 10468 10467 10468 10467 10465 10464 10463 10462 10463 10463 10459 10457 10459 10460 10456 10455 10454 10453 10452 10450 10449 10448 10445 10445 10446 10443 10442 10439 10435 10436 10435 10435 10435 10433 10433 10435 10428 10422 10423 10423 10424 10426 10427 10431 10432 10427 10420 10413 10409 10411 10414 10415 10416 10417 10415 10412 10411 10409 10413 10420 10418 10411 10414 10424 10430 10431 10432 10433 10432 10433 10432 10429 10429 10430 10430 10432 10435 10435 10434 10434
10469 10469 10469 10467 10466 10465 10464 10464 10463 10462 10463 10462 10460 10459 10457 10455 10456 10458 10456 10450 10450 10452 10450 10448 10448 10446 10444 10443 10442 10442 10439 10437 10437 10436 10435 10433 10430 10427 10425 10426 10427 10425 10425 10425 10420 10415 10414 10414 10415 10415 10417 10421 10420 10416 10409 10402 10400 10402 10403 10405 10407 10407 10404 10401 10399 10399 10402 10403 10402 10403 10405 10407 10416 10424 10423 10421 10420 10419 10418 10416 10416 10417 10417 10420 10425 10424 10422 10421
10465 10465 10463 10462 10461 10460 10459 10459 10457 10456 10456 10457 10456 10453 10452 10450 10448 10450 10452 10447 10443 10444 10442 10441 10441 10438 10437 10436 10435 10435 10433 10430 10428 10428 10428 10426 10423 10420 10417 10416 10415 10416 10417 10414 10411 10408 10405 10405 10406 10404 10406 10410 10408 10405 10399 10391 10390 10392 10393 10396 10399 10398 10395 10390 10387 10388 10388 10385 10388 10397 10395 10390 10400 10412 10413 10410 10406 10403 10404 10404 10404 10405 10406 10408 10412 10413 10411 10410
10459 10459 10458 10457 10456 10455 10453 10453 10452 10451 10449 10450 10450 10447 10446 10444 10441 10440 10443 10442 10438 10436 10435 10434 10432 10429 10428 10428 10427 10427 10426 10423 10421 10420 10419 10418 10415 10412 10410 10407 10404 10405 10406 10406 10404 10401 10397 10397 10396 10393 10396 10400 10396 10393 10387 10380 10379 10381 10382 10388 10391 10389 10384 10377 10375 10378 10376 10371 10373 10383 10382 10377 10386 10399 10402 10399 10394 10390 10390 10390 10389 10392 10395 10397 10399 10400 10401 10401
10454 10453 10453 10451 10450 10450 10448 10446 10446 10445 10444 10444 10443 10440 10439 10438 10435 10433 10433 10433 10432 10429 10428 10427 10425 10421 10419 10418 10418 10419 10417 10416 10415 10412 10409 10407 10405 10404 10402 10400 10397 10393 10392 10394 10395 10392 10391 10390 10386 10382 10387 10390 10386 10380 10374 10370 10369 10369 10374 10382 10384 10378 10370 10365 10365 10367 10363 10358 10360 10366 10369 10371 10378 10384 10385 10383 10380 10378 10378 10377 10376 10379 10383 10385 10386 10388 10389 10390
10449 10448 10448 10446 10444 10443 10442 10441 10440 10438 10437 10439 10437 10433 10432 10431 10428 10426 10425 10424 10424 10422 10420 10419 10418 10415 10412 10409 10408 10408 10408 10409 10407 10402 10399 10397 10396 10395 10393 10392 10389 10384 10382 10383 10381 10380 10380 10382 10379 10374 10377 10383 10378 10365 10360 10359 10357 10360 10372 10379 10373 10363 10356 10353 10353 10352 10349 10349 10352 10353 10354 10364 10372 10369 10363 10364 10367 10368 10367 10366 10366 10368 10370 10372 10373 10375 10377 10379
10444 10442 10442 10441 10439 10437 10436 10435 10434 10432 10431 10431 10429 10426 10426 10424 10420 10419 10417 10414 10414 10414 10412 10410 10410 10407 10404 10401 10398 10397 10399 10400 10396 10392 10391 10389 10387 10385 10384 10382 10379 10375 10373 10371 10369 10368 10366 10369 10370 10364 10366 10377 10369 10351 10348 10349 10347 10358 10373 10370 10355 10345 10342 10343 10343 10343 10343 10342 10343 10342 10343 10351 10359 10355 10349 10350 10353 10355 10354 10353 10355 10358 10360 10360 10360 10362 10364 10366
10438 10436 10435 10435 10433 10431 10429 10428 10426 10426 10426 10424 10420 10418 10419 10417 10414 10413 10411 10406 10403 10403 10402 10401 10400 10398 10395 10392 10389 10388 10390 10389 10384 10382 10383 10380 10378 10376 10374 10372 10369 10367 10364 10360 10358 10357 10354 10355 10356 10350 10353 10367 10360 10341 10336 10340 10346 10362 10364 10348 10336 10334 10334 10336 10337 10338 10336 10332 10331 10334 10335 10337 10340 10342 10341 10338 10338 10341 10343 10344 10346 10347 10346 10346 10346 10347 10350 10353